Wind_Speed
13 15 17 19 21 21 21 20 20 21 22 22 22 20 18 15 15 17 18 18 16 16 15 12 15 18 20 19 15 13 14 16 17 20 22 21 19 15 11 11 13 13 12 15 18 19 18 17 17 17 18 19 20 21 22 23 23 22 21 21 21 21 21 21 21 21 22 21 21 20 21 21 20 20 20 19 19 19 20 21 22 23 22 24 26
14 15 17 19 22 22 21 21 20 21 21 20 19 18 17 16 16 16 17 17 17 15 12 13 17 18 19 17 12 11 13 16 18 20 22 23 22 17 14 16 18 20 19 15 12 15 16 15 16 16 17 18 19 21 22 24 24 23 22 22 21 21 20 20 20 20 21 19 18 18 18 19 20 20 20 18 17 17 18 21 23 24 23 23 23
14 14 16 19 21 22 21 20 21 23 21 19 18 17 16 16 17 17 16 16 16 13 13 15 16 18 18 15 12 10 11 15 18 20 21 22 20 18 19 19 18 19 23 21 10 9 13 15 15 16 17 17 19 20 22 23 23 22 22 21 19 18 18 19 20 21 21 19 18 16 17 19 19 19 20 18 16 17 19 21 22 23 23 22 22
14 13 14 15 17 20 20 20 21 24 24 22 20 18 15 17 20 20 18 16 13 12 15 16 14 15 15 15 16 14 12 15 18 18 18 19 19 21 23 22 19 16 19 21 11 4 6 11 15 14 14 15 18 21 22 23 21 20 21 18 15 16 18 20 22 22 22 20 19 18 18 19 20 19 19 18 19 21 22 21 21 22 23 24 24
14 16 15 12 14 17 18 19 21 22 23 22 18 16 17 20 19 17 17 16 15 15 17 16 13 13 15 17 19 16 15 17 19 18 19 19 21 23 23 21 18 15 14 14 10 6 3 5 10 10 11 13 17 20 21 22 18 18 19 15 14 18 20 22 24 24 24 22 21 20 20 20 22 22 21 21 22 23 23 21 21 22 24 25 25
12 15 15 13 13 16 17 18 19 19 19 17 14 15 20 23 20 18 18 19 18 17 17 14 14 15 15 15 15 16 17 19 20 21 21 21 21 21 20 17 16 14 14 14 12 10 7 5 5 6 9 13 15 17 19 19 16 17 20 19 20 22 22 24 25 26 25 24 22 20 19 20 22 24 26 25 24 23 22 21 22 23 24 24 25
10 12 16 15 14 16 18 18 18 18 16 16 17 18 21 22 21 21 21 20 18 18 19 21 21 18 13 12 12 14 17 19 20 20 19 19 19 18 15 13 13 12 14 16 13 11 10 8 6 3 7 12 14 16 21 21 17 17 22 25 27 28 28 27 26 26 25 23 21 20 19 21 21 21 22 23 23 23 23 23 24 24 23 23 24
7 8 11 13 13 14 18 18 19 19 17 19 20 18 18 20 22 22 21 21 22 25 26 26 27 21 15 14 15 15 17 18 19 18 16 16 16 14 10 12 12 11 13 14 13 13 11 9 5 2 5 11 14 17 21 21 20 20 22 24 26 28 28 27 24 24 25 22 19 20 19 19 19 20 22 23 23 23 24 24 24 23 23 23 23
5 4 3 4 7 10 15 18 19 21 21 21 22 20 17 19 21 23 23 24 25 27 25 25 27 24 19 17 17 17 19 18 16 15 13 13 15 13 10 13 14 12 13 14 14 13 12 9 4 3 6 12 17 20 21 21 20 22 23 23 24 25 24 23 23 22 23 21 19 20 20 20 22 25 26 25 23 23 24 23 23 22 22 22 21
3 3 3 3 2 3 7 11 15 20 23 23 24 24 22 19 20 22 22 20 20 22 23 24 25 22 18 16 16 18 18 14 12 11 11 12 14 13 12 15 17 15 14 16 14 12 12 9 2 2 9 16 23 24 22 22 20 20 23 24 23 23 22 21 21 21 20 18 18 21 22 24 25 25 24 23 22 22 22 22 21 21 20 20 20
2 3 4 3 3 2 3 4 7 13 19 23 25 26 26 23 21 23 22 21 22 21 20 20 19 17 16 15 16 17 13 9 9 10 11 12 12 12 13 16 18 16 16 17 16 14 15 12 7 7 13 23 29 27 23 21 20 19 20 21 21 21 21 20 20 20 18 18 19 21 22 23 22 21 20 20 20 20 20 19 19 19 18 18 17
3 5 6 5 5 4 4 4 4 5 9 14 18 22 25 27 26 27 28 28 27 22 18 16 16 15 16 16 16 16 12 9 10 12 13 12 11 13 17 20 19 17 17 16 16 18 20 19 16 16 21 29 30 27 23 20 18 18 19 17 17 18 18 19 20 19 19 20 20 21 21 21 19 19 20 21 21 21 19 17 17 16 16 14 14
4 5 6 6 6 5 5 5 5 4 5 6 7 9 13 18 21 23 25 25 21 18 14 13 14 13 15 15 16 19 16 12 8 9 12 14 14 15 18 20 20 18 16 15 17 20 22 23 22 23 27 31 30 27 23 20 19 20 23 23 23 22 21 21 20 20 20 20 21 21 21 20 20 21 23 23 23 21 18 16 15 14 13 13 13
5 7 7 6 6 6 6 6 5 5 5 5 5 5 6 8 9 10 12 13 12 12 9 10 14 12 11 13 16 18 17 14 8 9 14 16 15 15 17 19 18 15 14 16 20 21 23 26 26 27 32 34 33 28 24 23 22 23 26 28 27 23 22 22 22 22 22 22 22 21 19 19 20 22 23 23 21 18 16 14 13 13 13 13 13
6 8 7 5 5 4 5 5 5 6 6 6 6 7 7 7 7 7 8 9 9 11 11 11 12 12 11 13 17 16 16 14 13 17 19 17 15 14 17 19 19 17 19 23 25 26 29 32 32 35 39 39 36 31 26 24 24 26 27 29 30 25 21 21 22 22 20 20 20 18 18 18 20 22 21 19 17 15 14 13 13 13 13 13 13
4 6 8 5 4 3 4 4 5 6 6 7 7 8 9 10 11 11 10 11 11 13 14 12 10 12 11 13 16 15 16 15 17 22 24 22 18 17 19 21 23 25 29 30 29 31 34 37 40 42 43 41 38 34 30 27 26 28 29 30 30 26 21 20 19 19 18 17 16 16 17 19 20 20 18 16 15 14 14 13 13 13 12 12 12
3 5 9 6 5 4 3 4 5 6 6 7 8 9 11 13 14 14 15 16 19 18 16 14 12 14 14 16 17 16 17 16 18 21 22 24 24 22 21 22 24 28 33 33 32 34 37 40 43 43 42 42 40 36 32 27 25 26 28 27 25 22 18 17 17 18 19 19 18 17 18 18 18 17 16 16 15 15 14 13 12 12 11 11 10
5 3 9 5 5 5 4 4 5 7 7 9 9 11 13 14 15 16 18 20 22 21 20 18 15 15 18 20 19 18 18 17 19 21 21 23 24 24 23 24 27 30 33 34 35 37 40 43 43 43 43 41 37 32 27 23 22 22 22 21 18 15 14 15 17 18 19 19 19 18 17 17 17 16 16 16 15 14 13 12 11 10 10 11 11
7 3 7 5 2 2 4 4 4 7 9 10 11 12 12 11 11 12 15 16 18 19 19 19 18 18 21 23 21 21 21 19 20 22 22 23 24 25 25 27 28 30 31 33 37 40 42 42 41 41 38 33 28 22 17 16 15 14 13 12 10 11 13 14 15 15 15 16 16 16 16 15 15 15 14 14 13 12 11 10 10 10 11 11 11
8 8 5 4 2 4 6 7 7 8 11 10 10 10 10 9 8 9 10 11 17 19 17 17 20 21 23 22 21 23 23 21 21 19 17 20 22 23 23 24 26 29 32 35 37 36 35 34 33 30 25 20 14 8 7 8 6 5 6 6 8 10 11 11 11 12 12 13 13 13 12 12 11 11 10 10 10 10 10 10 10 10 11 11 11
8 9 6 3 3 4 6 8 11 12 12 10 9 8 9 10 10 10 11 13 16 18 17 16 16 18 21 19 16 18 21 22 22 19 17 16 17 19 20 22 25 28 30 29 27 24 22 22 20 17 12 7 3 1 3 4 4 4 5 6 7 8 8 9 10 10 10 10 9 9 8 8 8 8 8 9 9 9 10 10 11 11 11 11 10
7 7 7 6 5 5 6 8 10 11 12 11 8 7 7 8 11 10 11 12 11 11 15 16 13 13 17 16 14 14 17 19 20 21 23 21 18 18 19 21 22 23 21 18 15 13 12 11 8 4 2 2 1 1 1 1 2 4 5 6 6 6 7 8 7 6 6 6 6 7 6 6 7 7 8 9 9 11 12 13 13 13 11 10 10
7 6 6 5 5 6 6 7 8 10 12 11 8 7 7 7 10 11 10 9 8 9 11 13 14 13 14 15 14 14 15 17 18 19 21 20 18 18 18 18 17 17 14 11 9 8 6 3 2 4 5 5 4 4 4 4 5 5 5 6 5 5 5 5 4 4 5 6 7 7 7 7 8 9 9 10 11 13 14 14 14 13 11 10 11
8 6 5 4 5 6 5 5 6 9 11 12 10 9 9 8 9 10 10 10 9 9 10 11 13 13 13 16 16 14 13 14 15 15 15 16 16 15 15 14 13 11 8 6 5 5 4 4 5 7 7 7 6 6 6 6 5 5 4 5 5 5 5 5 6 6 6 7 7 8 8 9 10 10 11 12 13 15 15 16 14 12 11 12 12
10 7 5 4 3 5 5 5 6 7 8 11 12 11 10 10 11 9 9 10 10 10 10 10 11 10 12 14 13 12 11 11 11 11 12 12 12 10 9 8 6 5 4 5 5 4 4 5 7 7 7 7 6 6 6 6 5 4 4 4 4 6 6 7 8 8 8 8 8 9 9 10 11 12 13 15 15 16 16 15 13 12 12 12 11
10 8 7 6 3 4 5 6 7 7 9 10 11 11 11 12 13 11 10 10 9 10 9 9 8 7 9 9 8 8 8 8 8 9 9 8 5 2 2 3 4 6 6 4 3 3 5 6 6 6 6 6 6 6 6 6 5 4 4 4 5 6 8 9 10 11 11 11 10 9 10 11 12 13 16 17 16 15 15 13 12 12 12 11 10
11 10 8 7 5 4 5 7 8 8 10 10 10 9 9 10 11 10 9 8 7 7 6 6 6 5 6 5 5 5 5 5 6 6 4 2 3 5 3 4 5 5 4 4 5 5 5 5 5 5 5 6 7 7 6 5 4 4 4 6 7 9 10 11 12 13 13 13 13 12 11 12 13 15 17 16 15 14 12 12 12 11 11 10 10
11 10 9 8 7 5 4 5 7 8 9 9 9 8 7 7 7 7 7 6 5 4 4 4 4 4 4 3 3 3 3 4 4 4 5 7 8 8 6 5 6 6 7 7 6 6 6 5 5 5 6 7 8 8 8 6 5 4 3 5 8 10 12 14 15 15 16 16 15 13 12 12 14 17 16 14 12 11 11 11 11 11 11 13 14
11 10 10 10 9 7 6 5 5 6 7 8 7 7 8 8 7 6 6 5 5 4 4 4 4 3 2 2 3 4 5 6 6 7 10 11 11 10 8 7 8 8 7 7 6 6 5 5 5 6 7 8 9 9 7 6 6 4 2 6 9 9 12 15 16 16 17 18 16 13 12 13 14 14 12 10 10 10 11 11 12 14 16 18 19
11 10 10 11 10 9 7 6 6 6 6 6 7 7 8 8 7 6 6 6 5 5 5 4 3 4 4 6 7 8 8 9 10 12 13 13 13 10 8 7 7 6 6 6 5 5 4 4 5 5 6 7 7 7 5 4 4 3 4 7 9 10 13 15 14 13 15 16 16 16 15 13 13 11 10 10 11 12 14 15 17 19 20 22 22
11 11 11 12 12 11 9 8 8 8 8 8 8 8 8 8 8 7 7 7 7 5 4 4 5 7 8 9 10 10 10 12 13 14 14 13 11 8 7 7 6 5 5 5 5 4 4 4 4 4 4 4 4 4 4 4 3 3 5 6 7 10 14 13 11 9 10 14 17 18 18 17 14 12 13 14 15 17 18 19 20 21 21 22 22
12 12 12 13 13 12 10 9 9 9 9 9 9 10 10 10 9 9 8 8 7 6 6 6 8 9 10 10 11 12 14 15 14 14 13 11 9 7 7 6 5 5 6 5 4 4 3 3 2 2 1 1 2 3 4 4 3 3 5 6 7 10 12 10 10 10 12 16 16 16 18 19 17 16 18 19 20 21 21 21 21 21 21 21 21
13 13 14 14 14 13 12 11 10 10 10 10 10 10 11 12 11 10 9 8 8 8 9 10 11 11 12 13 14 15 16 16 15 14 12 9 8 7 6 6 5 5 5 5 4 4 4 3 2 1 1 2 3 3 3 4 3 4 6 7 8 10 11 10 12 14 16 19 19 18 18 20 21 22 23 23 23 22 21 21 21 20 20 20 21
15 15 15 15 15 14 13 12 11 10 10 10 11 11 12 12 12 11 9 9 10 11 12 14 14 14 15 15 16 17 17 16 15 14 11 8 8 7 6 6 6 6 6 6 6 5 5 4 3 2 3 4 4 4 3 3 3 5 8 9 10 11 10 12 16 18 20 22 21 19 19 22 25 25 25 25 24 23 22 21 20 20 20 20 21
16 16 17 17 16 16 15 14 12 11 11 10 11 12 12 13 13 12 11 11 12 14 16 17 17 17 17 18 18 17 17 16 14 13 11 8 7 7 6 7 8 7 7 7 7 6 5 5 4 2 4 4 4 4 5 4 5 8 12 15 15 14 14 16 19 22 24 24 22 21 21 23 24 25 26 26 24 22 22 22 21 21 21 22 23
18 18 18 18 17 17 16 15 14 12 11 11 11 12 13 13 13 13 12 12 14 16 17 18 17 17 17 17 18 17 17 16 14 12 10 8 8 8 8 9 10 9 9 8 7 7 6 7 8 6 7 9 7 7 9 9 11 14 17 20 18 17 20 22 22 22 24 26 26 24 25 26 25 25 26 26 25 24 24 25 24 23 23 23 24
19 19 19 19 19 18 17 16 15 14 12 11 11 12 14 14 13 13 13 13 14 16 17 18 17 15 15 15 15 15 15 14 13 12 11 9 9 10 11 11 12 11 10 11 11 11 11 11 13 13 14 14 12 12 15 16 18 20 22 23 22 22 25 27 27 26 26 26 26 26 25 26 26 26 28 28 27 27 27 27 26 25 24 23 24
20 20 20 20 19 19 18 17 16 15 14 12 11 12 13 13 13 12 12 13 14 15 16 17 16 13 12 13 14 14 14 14 13 12 12 11 11 12 13 13 14 14 14 15 16 17 17 17 19 19 19 19 17 18 22 23 22 22 23 26 27 28 28 28 29 28 26 25 26 27 27 27 27 28 30 29 29 30 30 30 29 28 28 27 28
21 21 21 21 20 20 19 18 17 16 15 13 12 12 12 12 13 12 12 13 14 15 15 16 16 13 12 13 15 15 14 14 13 14 14 13 14 15 15 17 19 20 20 20 21 22 24 24 25 25 25 25 23 24 27 27 24 23 24 26 28 27 26 27 27 25 24 26 27 28 27 27 27 27 27 29 32 34 35 36 36 36 36 36 36
21 21 22 21 21 21 20 19 18 17 16 15 14 12 12 11 12 12 12 13 14 15 15 16 16 14 14 15 15 15 15 15 15 16 17 16 17 19 20 22 24 25 26 27 28 28 29 30 30 30 29 27 27 29 30 29 28 27 26 26 27 26 26 27 28 26 25 27 30 31 31 30 30 30 29 31 34 34 35 36 37 38 39 40 40
21 21 22 22 22 22 21 20 19 18 17 16 15 13 13 12 12 12 13 14 14 15 15 15 16 15 15 15 15 16 17 17 18 19 20 21 22 24 25 26 27 30 32 34 35 35 35 35 34 33 30 28 30 31 30 30 30 31 30 28 29 31 32 32 32 32 31 31 32 33 33 32 32 34 32 32 32 33 34 34 34 36 38 38 38
20 21 22 23 23 23 22 21 20 19 18 18 17 15 14 14 14 14 15 15 15 15 15 15 16 16 16 17 18 19 19 19 21 22 24 26 27 28 28 29 30 32 34 35 37 39 39 37 36 35 32 30 30 29 31 31 28 30 33 33 33 36 38 37 36 35 36 37 36 34 33 32 31 32 32 32 33 35 34 33 34 35 34 35 36
18 19 21 22 23 23 23 22 21 20 19 18 19 18 16 16 16 17 17 16 16 16 16 17 17 18 19 20 20 20 20 22 24 27 28 29 30 30 30 31 33 34 36 37 38 39 39 37 37 38 37 36 34 31 33 34 31 31 33 34 36 38 37 36 35 36 38 38 36 34 34 33 32 32 32 34 34 33 33 33 33 31 31 32 34
17 18 19 21 22 23 23 23 21 21 20 19 19 19 19 18 18 18 18 18 18 18 19 19 20 20 20 20 21 22 23 24 27 29 29 31 32 32 33 34 35 36 37 38 38 37 36 36 38 40 40 39 37 36 36 35 35 35 35 34 36 39 39 39 39 38 37 34 30 30 31 31 31 31 32 34 33 32 33 32 32 31 31 32 33
16 16 18 19 21 22 23 23 22 22 21 20 20 20 20 20 20 20 20 20 21 21 22 21 21 21 21 22 23 24 26 28 30 30 30 31 32 33 35 36 37 37 37 37 36 36 35 34 37 40 39 36 35 37 38 38 39 39 37 37 38 41 41 41 40 37 35 32 29 28 30 30 31 31 29 30 32 32 32 33 33 32 31 31 32
14 15 16 18 20 21 22 23 23 23 22 21 21 21 21 21 21 21 21 22 22 23 23 22 22 22 21 23 25 27 28 30 31 32 31 32 34 35 36 37 38 38 37 36 36 38 38 35 35 38 38 37 35 37 41 42 41 42 42 42 42 42 40 38 38 39 38 36 34 33 34 34 35 32 26 24 28 29 30 31 31 30 30 31 32
14 14 15 16 18 20 22 23 23 23 23 22 21 21 22 22 22 22 22 22 22 22 22 22 23 23 21 24 27 29 30 30 30 32 33 34 35 35 37 37 38 38 37 37 38 39 40 38 39 39 38 37 38 39 41 41 42 43 44 43 42 41 41 40 41 42 42 41 40 40 40 41 40 36 30 29 30 28 28 29 29 30 32 32 32
13 13 14 15 17 19 21 22 23 23 23 23 22 22 22 22 22 22 22 22 21 21 22 22 24 25 24 25 28 29 30 30 30 32 33 34 35 35 36 37 38 39 38 39 40 40 39 39 41 42 40 39 41 43 43 42 43 43 42 42 43 43 44 44 44 44 44 43 43 43 42 42 41 39 36 35 34 32 31 31 31 31 33 33 33
12 12 13 14 16 17 19 21 22 22 23 23 22 22 21 21 21 20 21 21 21 21 22 23 25 26 26 27 28 29 30 30 30 31 32 33 33 34 35 36 37 38 38 38 39 40 39 39 40 41 41 41 43 44 44 43 43 42 42 44 44 44 45 44 43 43 42 42 42 42 41 41 40 39 38 37 37 35 34 33 32 33 32 32 31
11 12 12 13 15 16 17 19 21 22 22 22 22 22 22 21 21 20 19 20 21 21 22 24 25 26 26 27 28 29 29 29 30 31 31 31 31 31 32 33 34 35 35 36 37 39 38 38 39 40 41 42 42 43 43 43 43 43 43 43 43 42 42 41 41 41 41 40 41 40 40 40 39 38 38 38 38 37 35 32 31 33 32 30 29
9 11 12 13 14 15 15 17 19 20 21 22 22 22 22 22 22 21 21 21 21 22 23 24 25 26 26 27 27 28 28 28 28 29 30 30 30 30 30 31 32 33 32 33 35 36 36 36 38 39 40 40 40 40 40 41 41 40 40 40 40 40 40 39 39 39 39 39 39 38 38 38 37 37 38 38 37 37 36 33 31 32 32 30 29
Wind_Direction
209 207 199 200 202 206 209 208 210 214 212 214 211 207 208 214 229 232 234 235 234 237 233 228 232 246 259 269 268 253 255 264 269 276 289 298 306 308 301 305 307 306 303 297 284 277 277 276 274 275 279 280 281 285 289 290 289 287 283 282 282 283 283 283 283 283 285 287 288 296 298 287 279 274 271 271 271 274 280 284 286 282 276 276 279
221 214 203 202 207 211 210 210 213 213 209 210 210 214 225 235 236 232 237 237 230 233 232 226 231 244 253 266 279 272 271 276 278 282 288 295 304 308 309 313 311 304 303 303 282 270 270 270 273 274 278 280 283 288 290 291 289 288 286 284 284 284 284 285 286 287 288 287 289 296 297 286 278 275 274 272 267 270 279 285 285 280 276 274 275
214 210 206 207 210 212 212 212 213 209 206 206 212 219 229 240 244 240 244 239 228 227 231 229 229 235 243 265 289 288 282 282 283 284 287 294 300 302 305 308 302 293 297 297 274 264 269 265 269 273 277 280 286 290 291 291 289 290 290 287 285 285 283 282 285 290 291 290 292 293 289 284 278 273 274 277 278 283 286 286 281 275 272 271 273
197 199 200 205 211 214 215 214 211 208 208 211 213 215 219 233 244 244 240 233 225 222 231 233 229 234 248 272 285 288 286 284 286 288 294 298 299 301 302 301 293 280 285 287 266 249 270 265 266 269 277 285 295 298 294 291 290 295 295 286 277 277 277 279 285 292 293 294 296 293 285 280 277 271 272 279 284 289 290 286 279 271 269 271 274
189 193 196 205 215 218 219 217 214 213 214 217 217 221 234 237 235 234 230 224 223 224 228 230 238 256 271 280 284 287 283 283 287 294 301 303 302 301 298 293 286 273 267 267 259 251 227 253 264 269 281 296 308 308 300 292 290 293 290 273 263 272 277 282 289 295 296 297 297 291 281 275 273 270 272 279 282 287 289 285 276 271 271 273 277
195 206 218 229 226 219 222 222 218 216 215 219 230 243 248 238 222 215 215 215 217 221 230 242 263 275 277 285 293 290 281 280 285 293 300 302 301 296 291 284 276 267 250 250 262 257 231 216 245 278 297 306 318 322 313 300 286 279 276 273 280 288 289 291 294 296 296 298 297 287 278 277 273 269 271 276 281 284 283 276 272 274 278 280 281
219 233 240 243 237 221 220 225 222 218 212 220 232 244 244 230 215 209 203 208 220 235 253 269 278 281 286 300 303 290 283 283 286 292 297 296 290 289 285 276 275 272 253 252 252 249 253 245 239 284 313 311 318 329 327 313 292 275 272 278 289 294 294 295 294 293 295 299 296 281 273 276 275 273 275 278 281 282 279 275 276 281 285 286 286
212 232 241 243 245 232 225 227 227 223 218 224 231 235 230 216 217 220 217 225 240 250 258 268 273 280 292 305 301 289 287 288 291 293 291 285 281 285 282 274 277 271 255 249 236 243 272 273 267 304 326 315 319 328 328 319 298 284 280 282 287 288 290 290 289 292 294 296 290 277 272 276 281 286 289 289 287 283 281 281 282 285 288 288 286
153 172 194 224 241 240 236 233 231 228 223 226 234 239 225 204 209 221 227 231 238 243 246 254 265 279 293 300 296 288 287 287 287 288 285 280 285 280 264 260 265 262 250 243 232 241 269 282 303 328 326 322 324 326 323 319 298 284 287 287 287 288 290 286 287 294 294 292 283 275 278 285 287 289 291 291 287 282 282 284 285 285 286 286 286
152 162 153 145 174 219 235 236 236 234 228 227 235 245 243 225 217 225 231 235 244 245 242 250 263 280 293 293 286 281 283 283 278 278 277 285 298 287 264 249 247 249 247 247 240 240 266 277 288 316 327 326 323 323 319 319 306 291 292 288 284 282 280 280 291 298 297 292 281 278 282 286 289 290 291 289 286 285 286 287 285 284 285 286 286
213 211 210 200 181 178 192 222 236 237 235 234 239 247 250 245 239 242 248 256 264 259 249 257 270 282 287 285 277 273 272 269 268 265 264 284 303 291 265 251 244 243 244 249 246 246 262 268 264 277 313 320 319 320 317 318 314 299 288 277 270 270 272 284 301 306 303 296 287 285 288 291 292 290 289 288 288 289 288 286 284 283 284 283 283
257 237 234 228 219 217 208 204 215 227 231 235 241 246 250 249 247 248 253 259 262 258 255 269 279 277 270 268 263 260 252 249 262 261 262 277 293 283 260 249 245 239 239 245 246 253 261 265 270 278 303 314 316 318 313 312 308 287 278 282 291 292 293 304 313 312 308 300 294 293 294 294 289 287 290 292 292 291 289 285 282 281 282 281 280
284 264 249 239 229 217 216 222 222 222 223 220 225 233 235 237 239 242 248 254 257 253 255 261 259 254 250 251 257 258 249 242 254 268 273 276 281 281 262 249 246 244 242 243 247 253 260 266 270 280 300 312 315 315 308 303 296 277 276 296 316 320 315 318 320 315 310 302 297 294 292 289 286 290 293 292 291 289 286 283 282 282 282 281 281
298 284 268 247 231 210 208 224 232 229 234 228 203 187 173 191 210 222 233 238 245 240 230 237 234 232 245 262 273 273 257 236 241 278 279 276 279 280 267 253 245 245 254 264 261 258 268 275 275 284 301 310 312 309 303 297 289 277 274 285 303 316 315 314 317 314 307 296 290 287 285 284 287 291 289 286 284 283 283 284 285 285 284 284 285
307 291 275 251 242 225 217 227 239 230 235 237 212 196 170 166 181 187 208 215 234 232 222 239 241 233 239 259 269 278 273 252 256 274 270 264 270 273 267 259 247 251 275 284 275 272 281 285 283 288 297 304 306 304 299 291 282 277 275 278 289 299 302 303 309 307 296 286 280 279 281 283 286 288 285 283 282 283 285 287 287 286 287 288 290
341 295 281 274 270 263 245 240 246 236 230 234 219 208 189 180 180 180 201 212 229 236 233 235 238 237 228 236 252 262 272 270 267 268 262 254 254 255 258 259 260 271 283 287 281 279 285 287 287 289 294 298 300 299 295 286 276 274 275 278 285 292 297 299 301 295 288 287 285 281 282 285 288 288 286 285 285 287 287 287 287 288 289 291 292
61 282 277 290 296 290 272 249 243 243 232 228 219 213 204 197 191 186 195 210 226 231 232 224 219 236 238 238 246 251 258 263 266 271 265 253 247 247 248 251 262 275 282 285 286 285 286 288 289 290 293 295 296 295 291 285 277 274 276 281 286 292 298 298 293 287 288 292 293 291 291 292 291 289 288 288 288 288 287 288 289 292 293 294 295
104 250 272 285 306 314 305 270 249 247 235 232 222 212 215 213 207 205 207 218 228 225 221 219 217 229 239 244 246 248 253 253 259 270 270 257 251 250 250 255 266 276 279 281 283 284 286 288 288 288 291 292 292 290 286 282 279 279 280 283 289 293 294 291 288 287 288 290 293 296 296 295 293 292 292 291 291 291 293 295 298 301 301 300 300
121 166 265 270 260 280 272 249 245 258 248 237 225 215 219 216 209 218 221 221 224 223 220 217 218 225 231 241 245 247 252 254 255 262 259 250 250 253 255 261 268 273 273 274 278 282 284 284 284 285 287 288 287 286 286 283 281 283 283 282 286 288 287 287 289 289 291 294 297 298 298 298 297 298 298 297 298 301 306 310 313 312 310 308 308
129 151 232 275 223 208 224 215 205 239 251 236 224 220 216 216 216 222 225 219 221 229 232 219 217 225 232 243 251 250 248 247 253 261 255 241 243 253 259 264 268 271 273 275 277 280 281 281 283 283 284 283 284 287 289 290 288 288 287 281 280 285 289 290 293 295 299 301 301 302 304 305 307 308 309 311 315 319 324 325 327 325 320 316 315
127 146 169 201 200 197 210 211 206 223 239 230 219 214 206 210 219 221 222 224 223 225 232 227 221 223 232 250 265 257 245 242 249 260 271 270 267 271 274 275 277 277 277 279 281 284 285 284 282 279 274 268 274 254 245 270 284 292 298 300 298 301 296 292 294 298 303 308 314 316 317 317 319 321 325 331 333 335 337 336 335 332 327 324 324
110 130 147 166 176 178 198 206 206 219 235 235 225 212 199 192 200 212 220 221 212 205 220 230 232 229 232 251 271 269 258 256 259 261 272 285 290 285 283 282 280 281 283 288 292 290 285 278 270 260 214 146 136 159 201 296 333 338 337 331 326 319 304 299 300 305 311 322 331 326 323 324 325 328 334 338 338 338 338 338 338 336 333 331 333
87 104 122 149 158 169 201 203 198 216 236 247 246 229 220 205 203 208 212 207 193 200 221 230 236 241 239 244 260 272 270 269 271 269 272 282 286 283 281 280 282 286 290 291 284 272 256 230 162 114 101 96 90 77 62 49 33 17 9 357 349 329 315 320 317 317 324 329 327 323 323 324 328 332 333 336 336 337 338 338 339 339 338 337 337
70 78 96 128 151 164 191 202 202 210 231 249 255 245 241 246 243 221 211 208 207 229 244 241 239 243 244 245 255 268 272 271 272 273 276 279 280 281 280 282 283 283 278 259 238 220 190 147 114 100 92 88 81 70 63 58 45 27 18 5 345 325 325 336 325 320 327 329 330 331 327 325 328 329 332 335 334 335 337 338 340 341 341 340 342
64 66 78 100 140 156 165 185 199 194 214 241 247 246 240 241 251 245 231 228 230 251 259 251 248 245 244 247 253 262 267 271 275 277 279 279 278 281 281 276 266 240 203 182 182 172 141 116 103 95 89 86 78 67 60 51 39 21 18 3 330 323 330 333 326 322 327 329 334 336 329 328 330 329 331 332 332 334 337 340 343 344 345 346 351
61 63 68 80 103 137 153 175 191 190 198 220 233 237 233 230 240 244 241 240 240 251 253 248 245 230 232 242 248 256 266 273 278 277 275 272 269 291 273 219 181 166 158 147 135 116 101 96 96 95 90 84 75 65 53 44 38 20 10 353 330 332 334 335 334 333 335 332 330 328 327 330 330 329 331 331 333 336 341 345 347 348 350 353 0
56 59 64 71 81 112 149 168 181 189 195 208 217 221 230 236 237 233 228 228 227 228 228 227 220 206 221 238 242 257 270 271 268 260 251 212 135 112 129 159 140 128 110 85 75 74 75 79 83 86 83 79 73 69 59 45 35 20 6 348 342 346 344 344 343 340 339 335 329 321 319 326 328 328 330 333 338 343 349 355 355 356 0 9 23
52 57 62 68 73 90 122 153 170 181 187 197 205 203 209 221 217 209 205 195 187 187 187 197 197 199 217 230 238 245 238 228 222 201 143 120 117 118 126 122 100 87 76 68 63 62 67 72 74 76 79 79 71 64 61 49 38 47 30 344 345 348 348 350 347 343 341 336 331 325 320 321 325 329 335 340 348 356 7 10 10 16 29 44 57
47 54 59 63 65 74 94 121 147 163 175 183 190 190 186 189 187 181 177 163 152 154 160 166 169 183 190 181 173 170 172 174 158 134 118 112 110 112 109 96 86 82 76 71 68 67 71 75 79 84 88 83 68 60 62 53 46 60 25 339 344 347 352 356 358 355 350 344 342 343 340 336 337 341 348 360 12 23 31 35 43 52 59 65 72
42 49 56 58 61 65 78 98 117 130 144 157 162 161 160 163 160 152 148 140 133 133 143 151 155 152 145 144 147 153 154 143 127 116 110 109 108 106 102 93 88 86 81 78 76 75 76 82 91 97 99 93 77 72 71 48 39 46 1 349 348 353 4 8 11 6 359 2 10 15 14 8 5 9 21 34 45 54 59 62 65 66 68 71 74
39 47 53 55 58 63 73 87 100 111 121 131 137 138 138 137 132 130 126 123 122 120 119 126 133 131 134 141 142 143 137 127 118 110 108 106 106 107 102 95 91 87 85 79 74 75 76 82 92 98 106 111 101 86 65 40 34 22 6 2 359 12 20 17 13 10 21 34 34 32 33 33 34 40 51 61 67 72 73 71 69 68 69 71 74
40 46 51 54 57 61 68 81 92 102 114 123 128 129 129 126 120 118 116 112 106 100 99 110 121 127 134 138 135 132 127 121 115 110 108 107 109 109 103 98 93 91 89 77 64 63 61 69 81 86 84 83 86 77 56 50 46 24 16 18 24 36 36 23 21 32 46 55 57 54 51 49 51 60 69 74 78 77 74 71 68 68 69 71 74
42 47 50 53 56 60 67 76 88 98 108 119 125 127 128 124 119 114 108 104 98 96 103 113 118 124 129 128 127 125 122 119 116 110 106 107 110 106 101 96 86 81 75 61 45 46 47 43 37 20 3 356 20 56 67 64 51 30 33 38 43 47 48 49 53 61 62 63 70 70 66 66 66 71 77 79 79 77 74 70 68 68 69 71 73
44 49 50 52 55 60 66 74 84 95 105 114 120 124 126 123 118 112 105 102 100 102 108 115 118 119 119 117 117 117 117 117 115 112 108 108 106 97 90 78 62 59 57 46 34 34 37 41 38 8 351 354 8 42 75 72 51 43 57 69 67 64 73 76 72 77 78 73 76 76 72 73 73 75 77 77 76 75 74 71 68 67 68 68 69
46 49 50 51 54 59 65 72 81 91 101 110 117 120 122 120 116 109 104 102 103 106 110 113 114 113 110 108 108 109 110 111 111 111 108 104 94 80 69 59 52 49 43 36 32 33 36 58 73 27 1 19 28 56 79 88 87 77 76 79 80 80 89 90 79 80 83 81 83 81 72 72 75 76 75 74 72 71 71 70 66 64 64 65 66
47 49 50 51 53 58 63 68 76 85 96 106 114 117 117 117 114 108 103 102 104 107 109 111 109 106 105 104 104 105 107 108 108 106 100 89 77 67 58 54 51 44 37 42 50 56 65 77 88 80 58 57 60 79 94 98 96 92 85 84 88 89 88 88 82 80 86 87 85 80 75 75 77 77 74 70 69 67 68 68 66 64 63 63 63
47 48 49 51 53 56 61 65 72 79 90 102 112 118 118 116 112 108 105 104 106 107 109 108 105 101 102 103 104 106 108 107 106 101 93 81 71 62 54 53 54 53 55 68 74 77 83 83 86 87 80 76 79 90 100 102 97 93 88 86 92 93 89 87 84 84 88 86 79 75 75 76 75 75 73 71 71 71 70 69 69 67 65 64 63
48 49 49 51 52 55 60 63 67 73 83 96 108 119 121 120 116 110 108 108 109 109 109 109 108 104 102 106 108 109 108 106 101 96 90 79 69 64 61 64 69 69 73 80 82 82 84 84 86 90 90 93 99 100 98 99 96 92 88 87 90 90 87 86 86 87 86 81 78 77 76 77 76 74 72 72 75 74 73 72 71 69 67 65 64
50 51 51 51 53 54 58 61 65 69 76 87 102 115 122 124 122 117 113 111 112 112 112 112 112 111 111 111 111 110 105 100 95 89 85 76 71 74 76 79 80 78 78 80 83 83 83 84 86 89 90 92 97 97 93 92 91 90 88 87 87 85 84 85 84 82 82 85 86 83 80 79 77 75 74 76 78 75 73 73 72 70 70 69 68
51 53 53 53 54 55 57 60 63 67 72 80 92 106 116 123 124 120 117 116 116 116 116 115 113 115 116 112 109 106 101 94 87 82 81 81 81 84 84 84 83 82 81 81 82 83 83 83 84 86 87 87 90 91 89 88 88 87 87 88 87 87 89 87 82 80 85 91 89 85 83 80 80 84 84 79 76 72 72 73 73 73 73 73 72
51 53 55 55 55 56 57 60 62 66 71 77 84 94 106 115 119 118 116 116 118 118 117 115 114 116 114 110 106 102 96 90 83 81 85 88 88 86 84 84 85 83 83 82 81 81 82 82 83 84 86 88 90 89 88 89 90 86 85 87 89 89 90 90 87 85 87 89 90 89 87 83 84 85 80 75 74 76 77 76 76 75 74 73 72
53 53 55 56 56 57 58 60 62 65 70 77 81 86 94 104 112 114 113 112 114 115 114 113 110 109 109 107 104 99 93 88 87 89 91 90 88 86 84 85 86 84 83 83 81 81 81 81 83 85 87 90 89 89 89 90 90 89 86 86 89 90 90 91 89 86 86 88 90 90 89 88 84 78 75 77 81 82 79 76 75 74 71 70 71
56 54 54 55 56 57 59 61 63 66 70 76 82 84 88 95 103 108 108 106 107 107 108 108 107 106 106 104 99 95 91 91 94 94 92 90 88 87 87 86 85 83 83 85 84 82 80 81 84 86 87 87 87 90 92 91 92 93 91 89 90 91 91 90 89 90 91 90 88 87 89 88 81 76 78 83 83 79 73 72 72 70 69 71 71
60 57 56 56 56 57 60 62 64 67 72 78 83 86 89 94 100 103 103 102 102 104 104 104 104 104 103 99 95 93 95 97 99 96 92 90 90 89 88 87 86 84 83 85 86 84 81 82 84 86 86 85 84 88 90 91 93 94 93 93 92 90 91 93 95 96 94 89 89 90 90 86 83 81 81 81 78 72 69 70 69 67 68 70 69
64 61 60 59 58 58 60 63 66 68 73 79 85 87 90 95 100 101 101 100 101 102 102 101 102 100 97 97 96 96 99 100 99 98 95 92 91 89 88 87 87 86 85 86 86 87 88 85 83 85 89 88 86 87 89 91 93 94 94 94 95 95 95 96 96 97 95 94 96 93 86 84 87 84 78 76 73 70 70 69 67 66 68 68 66
70 66 65 64 63 61 62 64 67 70 73 79 84 88 90 94 99 100 100 101 101 101 100 98 97 97 95 96 99 101 102 100 98 99 98 94 91 90 89 88 88 87 86 87 87 88 90 89 87 89 91 92 90 92 93 93 93 94 95 97 98 98 97 96 95 94 94 95 94 88 83 83 84 81 76 75 72 69 70 68 65 65 65 65 63
77 72 71 70 68 66 65 65 68 70 74 78 84 87 89 92 95 98 99 99 98 97 96 95 94 96 99 99 101 102 102 102 100 99 97 95 93 91 91 89 89 88 87 88 89 90 91 92 93 94 94 95 97 98 96 95 96 95 95 96 96 94 94 94 94 92 92 91 90 88 86 84 83 82 82 82 80 77 74 70 67 66 63 61 60
84 79 76 75 73 71 69 68 68 70 74 78 83 87 90 91 93 95 95 94 93 92 91 92 93 96 101 101 102 103 103 103 103 100 98 96 95 94 93 92 91 91 91 91 93 95 97 96 96 96 97 99 101 101 99 99 98 96 95 96 95 93 93 93 91 90 90 90 89 88 86 85 84 84 83 81 80 79 77 72 67 65 62 58 55
91 87 83 82 79 75 73 72 71 71 73 77 82 87 90 92 93 93 93 92 91 90 90 91 93 96 100 103 104 106 106 106 104 102 100 99 98 97 97 97 96 95 94 95 97 98 100 101 100 100 101 102 102 101 101 100 99 98 97 96 95 94 92 91 90 89 88 87 86 85 83 83 82 81 80 77 75 75 75 71 64 59 58 55 51
101 95 90 88 87 82 78 76 74 73 73 76 80 86 90 92 93 93 93 93 93 93 92 92 94 98 101 105 108 109 109 109 106 105 104 103 103 102 102 102 102 101 100 100 101 102 102 103 103 103 104 103 102 101 101 100 99 98 97 95 94 93 91 90 89 87 86 84 83 81 80 80 78 77 75 73 71 70 69 67 60 55 54 53 49
117 108 98 94 93 90 85 81 78 77 76 77 79 83 89 93 95 94 94 93 94 94 94 94 96 99 104 107 110 112 112 111 109 108 107 107 108 107 107 107 107 108 107 106 106 105 104 106 106 106 105 104 103 102 100 99 98 96 95 94 93 91 89 88 87 85 84 81 79 78 77 77 75 73 71 70 68 66 64 63 60 55 54 52 49
Height
10960 10961 10962 10963 10963 10964 10964 10965 10965 10965 10965 10966 10966 10967 10967 10967 10967 10967 10967 10967 10967 10967 10967 10967 10967 10967 10966 10965 10964 10963 10964 10965 10966 10966 10966 10965 10966 10966 10966 10966 10965 10964 10962 10961 10961 10960 10960 10960 10960 10959 10957 10955 10953 10952 10951 10951 10952 10952 10953 10953 10953 10952 10952 10952 10952 10952 10953 10953 10951 10948 10944 10941 10940 10941 10942 10942 10941 10939 10938 10937 10936 10935 10935 10934 10932
10960 10961 10962 10963 10963 10964 10965 10965 10965 10965 10965 10966 10966 10966 10967 10967 10967 10967 10967 10967 10967 10967 10967 10966 10966 10966 10965 10964 10963 10963 10963 10964 10964 10964 10964 10964 10965 10965 10965 10965 10964 10963 10961 10960 10959 10958 10959 10959 10959 10958 10957 10955 10953 10952 10950 10950 10949 10950 10950 10951 10951 10950 10950 10950 10950 10950 10950 10950 10950 10949 10946 10942 10939 10938 10938 10939 10940 10939 10938 10936 10935 10934 10933 10932 10932
10960 10961 10962 10963 10963 10964 10965 10965 10965 10965 10966 10966 10966 10966 10967 10968 10968 10967 10967 10966 10967 10967 10967 10966 10966 10965 10964 10963 10963 10963 10963 10963 10963 10963 10963 10963 10964 10964 10964 10964 10963 10962 10961 10959 10957 10956 10957 10957 10957 10957 10956 10955 10953 10951 10950 10948 10948 10948 10948 10948 10949 10949 10949 10948 10948 10948 10948 10948 10948 10948 10947 10944 10941 10938 10936 10936 10936 10937 10936 10935 10934 10933 10932 10932 10931
10961 10961 10962 10962 10963 10964 10964 10964 10964 10965 10965 10965 10965 10966 10967 10967 10968 10967 10966 10966 10966 10967 10967 10967 10965 10964 10963 10963 10963 10963 10962 10962 10962 10962 10962 10962 10963 10962 10962 10962 10961 10961 10960 10959 10956 10955 10955 10955 10955 10956 10955 10954 10952 10951 10949 10948 10947 10947 10946 10946 10946 10947 10947 10947 10946 10946 10946 10946 10946 10946 10945 10945 10942 10940 10937 10935 10934 10933 10933 10933 10932 10932 10932 10931 10931
10961 10961 10961 10962 10963 10963 10964 10964 10964 10964 10964 10964 10965 10966 10966 10967 10967 10967 10967 10966 10966 10967 10966 10966 10964 10963 10962 10962 10962 10962 10962 10962 10961 10961 10961 10961 10961 10960 10960 10959 10959 10959 10959 10958 10956 10954 10952 10952 10953 10953 10954 10953 10952 10950 10949 10947 10947 10946 10945 10945 10945 10945 10945 10945 10945 10944 10943 10943 10943 10943 10943 10943 10942 10940 10938 10936 10934 10932 10931 10930 10930 10930 10930 10930 10930
10962 10961 10961 10962 10963 10964 10963 10963 10964 10964 10964 10964 10965 10966 10966 10967 10967 10966 10967 10967 10966 10965 10964 10963 10961 10961 10961 10960 10960 10962 10962 10961 10961 10960 10960 10960 10959 10959 10958 10957 10957 10957 10958 10958 10956 10954 10951 10950 10951 10951 10951 10951 10950 10948 10948 10947 10946 10946 10945 10943 10942 10942 10942 10943 10943 10942 10941 10941 10941 10940 10940 10940 10940 10939 10937 10936 10934 10932 10931 10930 10929 10928 10928 10929 10929
10962 10962 10961 10962 10963 10963 10963 10963 10964 10964 10964 10963 10964 10965 10965 10966 10966 10965 10965 10965 10964 10963 10962 10960 10959 10959 10958 10957 10959 10961 10961 10961 10960 10959 10959 10958 10958 10958 10957 10956 10955 10955 10956 10956 10955 10954 10951 10949 10949 10950 10950 10949 10948 10947 10946 10946 10945 10945 10944 10942 10941 10940 10940 10941 10941 10940 10940 10940 10939 10938 10938 10937 10937 10937 10936 10935 10934 10932 10931 10929 10928 10928 10927 10927 10927
10963 10962 10961 10961 10962 10962 10962 10962 10963 10963 10963 10962 10963 10964 10965 10965 10966 10965 10964 10964 10964 10963 10963 10961 10958 10958 10957 10956 10958 10960 10960 10960 10959 10958 10957 10957 10957 10957 10956 10955 10955 10954 10955 10955 10955 10954 10952 10950 10948 10949 10949 10947 10946 10946 10945 10944 10944 10943 10943 10942 10941 10940 10939 10939 10939 10939 10938 10938 10938 10936 10936 10935 10935 10935 10934 10933 10932 10931 10930 10928 10928 10927 10926 10926 10925
10963 10962 10961 10961 10961 10961 10961 10961 10962 10962 10962 10962 10962 10963 10964 10964 10965 10964 10964 10964 10964 10963 10963 10962 10959 10957 10957 10956 10957 10958 10958 10958 10957 10957 10956 10956 10956 10956 10956 10955 10954 10954 10955 10954 10954 10954 10952 10950 10948 10948 10948 10947 10946 10945 10944 10943 10943 10942 10942 10941 10940 10939 10938 10937 10937 10937 10936 10936 10936 10935 10934 10934 10933 10933 10932 10931 10930 10929 10928 10927 10927 10926 10925 10925 10923
10963 10962 10961 10961 10961 10961 10960 10960 10961 10961 10961 10961 10961 10961 10962 10963 10964 10963 10962 10963 10963 10963 10963 10962 10959 10956 10956 10956 10956 10956 10956 10957 10956 10956 10955 10955 10955 10955 10955 10955 10954 10954 10955 10954 10954 10953 10952 10950 10948 10947 10946 10946 10945 10944 10943 10942 10942 10942 10940 10939 10938 10938 10937 10936 10936 10935 10935 10934 10934 10934 10933 10932 10932 10931 10930 10929 10928 10927 10926 10926 10925 10925 10924 10923 10921
10962 10962 10961 10961 10961 10961 10960 10960 10960 10960 10960 10961 10961 10960 10961 10962 10963 10962 10961 10961 10963 10963 10962 10961 10958 10955 10954 10954 10954 10954 10955 10955 10955 10955 10954 10954 10954 10955 10955 10954 10954 10954 10954 10954 10953 10952 10951 10950 10948 10946 10945 10944 10944 10943 10942 10941 10941 10941 10939 10938 10937 10936 10935 10934 10934 10933 10933 10933 10933 10932 10931 10931 10930 10928 10927 10927 10926 10925 10924 10924 10924 10923 10922 10921 10919
10962 10961 10961 10961 10961 10961 10961 10961 10961 10960 10960 10960 10959 10959 10960 10961 10961 10960 10959 10960 10961 10962 10960 10959 10957 10956 10954 10954 10953 10953 10953 10954 10953 10953 10953 10953 10954 10954 10954 10953 10953 10952 10952 10952 10952 10950 10950 10949 10947 10945 10943 10943 10942 10942 10941 10941 10941 10941 10939 10937 10935 10934 10933 10933 10932 10931 10931 10931 10931 10930 10930 10929 10928 10927 10926 10925 10924 10923 10922 10922 10921 10921 10920 10918 10917
10960 10960 10960 10960 10960 10960 10960 10960 10960 10960 10960 10959 10959 10959 10960 10959 10959 10958 10958 10957 10958 10959 10957 10957 10957 10956 10955 10955 10954 10953 10953 10953 10953 10952 10952 10953 10954 10954 10954 10953 10952 10951 10951 10951 10950 10949 10947 10947 10946 10944 10942 10941 10941 10940 10940 10940 10940 10941 10938 10936 10934 10933 10931 10931 10930 10929 10929 10930 10929 10929 10928 10927 10926 10925 10924 10923 10922 10921 10920 10920 10919 10919 10918 10916 10915
10959 10958 10958 10958 10958 10958 10959 10959 10959 10959 10959 10959 10959 10959 10959 10958 10956 10956 10956 10955 10956 10956 10956 10956 10956 10956 10956 10955 10955 10953 10952 10953 10952 10951 10951 10952 10953 10954 10954 10953 10951 10950 10950 10950 10949 10947 10946 10944 10943 10941 10940 10939 10939 10939 10939 10938 10938 10939 10938 10936 10934 10933 10932 10931 10930 10929 10929 10928 10928 10927 10926 10926 10924 10923 10922 10921 10919 10919 10918 10918 10918 10917 10916 10915 10914
10958 10956 10955 10955 10956 10956 10957 10957 10958 10958 10958 10958 10959 10959 10960 10959 10958 10958 10957 10955 10955 10955 10956 10956 10956 10955 10955 10955 10954 10953 10953 10953 10952 10950 10949 10950 10951 10952 10953 10952 10950 10948 10947 10948 10947 10946 10944 10942 10940 10938 10937 10937 10938 10937 10937 10937 10937 10937 10937 10936 10934 10934 10933 10931 10930 10929 10929 10927 10926 10926 10925 10924 10923 10921 10920 10919 10918 10917 10917 10917 10916 10916 10914 10913 10912
10958 10954 10952 10953 10954 10954 10955 10955 10956 10957 10957 10958 10958 10959 10960 10961 10961 10962 10959 10957 10955 10954 10954 10954 10955 10954 10954 10954 10953 10953 10952 10952 10951 10950 10948 10948 10949 10949 10950 10951 10950 10948 10946 10944 10943 10942 10941 10940 10938 10936 10935 10935 10935 10935 10935 10935 10935 10935 10935 10934 10934 10933 10933 10931 10930 10929 10928 10927 10925 10924 10923 10922 10921 10920 10919 10918 10917 10917 10916 10916 10915 10914 10913 10912 10911
10959 10954 10950 10951 10952 10953 10953 10954 10955 10956 10956 10957 10957 10958 10959 10960 10961 10962 10960 10957 10955 10954 10953 10952 10953 10953 10952 10952 10952 10952 10952 10951 10951 10949 10948 10947 10947 10947 10947 10948 10948 10947 10945 10943 10941 10939 10938 10936 10935 10934 10933 10932 10932 10932 10932 10932 10933 10933 10932 10932 10932 10932 10931 10930 10930 10929 10927 10925 10924 10923 10922 10921 10920 10919 10918 10917 10916 10915 10915 10914 10914 10913 10911 10910 10909
10960 10956 10951 10951 10951 10950 10951 10952 10954 10955 10956 10956 10957 10957 10958 10959 10960 10960 10958 10955 10953 10952 10951 10951 10951 10951 10950 10949 10950 10950 10950 10950 10950 10949 10948 10947 10946 10946 10946 10945 10945 10945 10944 10942 10940 10938 10936 10934 10933 10932 10931 10931 10930 10930 10930 10930 10930 10931 10930 10930 10931 10930 10930 10929 10929 10928 10926 10925 10924 10923 10922 10920 10919 10918 10917 10915 10914 10914 10913 10913 10912 10911 10910 10909 10908
10960 10958 10954 10953 10953 10952 10952 10954 10955 10955 10954 10956 10956 10956 10957 10957 10958 10957 10955 10953 10952 10951 10950 10950 10950 10949 10948 10947 10948 10948 10949 10949 10949 10948 10947 10946 10945 10945 10944 10943 10942 10942 10942 10941 10939 10937 10935 10934 10932 10931 10931 10930 10929 10929 10929 10929 10929 10929 10929 10929 10929 10929 10929 10928 10928 10927 10925 10924 10924 10923 10921 10920 10918 10917 10916 10914 10913 10913 10912 10912 10911 10910 10909 10908 10907
10960 10960 10957 10955 10956 10956 10956 10956 10958 10955 10953 10955 10955 10955 10956 10956 10957 10955 10953 10952 10951 10950 10949 10949 10948 10948 10947 10947 10947 10947 10947 10948 10948 10947 10945 10944 10944 10943 10942 10941 10940 10939 10939 10938 10937 10936 10934 10933 10931 10930 10929 10929 10928 10929 10929 10929 10929 10928 10928 10928 10928 10928 10928 10927 10927 10926 10925 10924 10923 10922 10921 10919 10918 10917 10915 10914 10913 10912 10911 10911 10910 10909 10908 10907 10906
10960 10960 10959 10957 10957 10957 10956 10957 10958 10956 10953 10954 10955 10955 10955 10955 10955 10953 10952 10952 10950 10948 10948 10947 10947 10947 10947 10948 10947 10946 10946 10947 10946 10945 10944 10943 10942 10941 10940 10940 10939 10938 10937 10936 10935 10934 10933 10932 10931 10930 10929 10929 10929 10929 10929 10928 10928 10928 10928 10928 10928 10927 10927 10927 10926 10925 10924 10924 10923 10922 10921 10919 10918 10916 10915 10914 10912 10912 10911 10910 10909 10908 10907 10906 10905
10960 10960 10960 10959 10958 10957 10956 10957 10957 10956 10952 10952 10955 10955 10954 10955 10953 10953 10952 10950 10949 10948 10946 10946 10947 10947 10948 10949 10947 10945 10945 10945 10945 10944 10943 10942 10942 10941 10940 10939 10938 10937 10936 10935 10934 10934 10933 10932 10931 10930 10929 10929 10929 10929 10928 10928 10928 10928 10928 10928 10928 10927 10927 10927 10926 10925 10924 10924 10923 10922 10921 10919 10918 10916 10915 10913 10912 10911 10910 10909 10908 10907 10906 10905 10905
10960 10959 10959 10958 10958 10957 10956 10957 10957 10956 10952 10950 10953 10954 10954 10954 10953 10953 10953 10951 10950 10949 10947 10946 10947 10948 10949 10950 10946 10944 10944 10944 10944 10944 10943 10943 10942 10941 10940 10939 10938 10937 10936 10935 10935 10934 10934 10933 10932 10931 10930 10929 10929 10929 10929 10928 10928 10928 10928 10928 10928 10928 10927 10927 10926 10926 10925 10924 10923 10922 10920 10919 10918 10916 10915 10913 10912 10911 10910 10909 10907 10906 10906 10905 10904
10959 10959 10958 10958 10957 10957 10956 10956 10956 10956 10954 10950 10950 10952 10953 10952 10951 10951 10952 10951 10950 10948 10947 10947 10948 10949 10949 10949 10946 10945 10944 10944 10943 10943 10943 10942 10941 10940 10939 10938 10937 10937 10936 10936 10935 10935 10934 10933 10932 10931 10930 10930 10929 10929 10929 10929 10929 10929 10929 10928 10928 10928 10927 10927 10926 10926 10925 10924 10923 10921 10920 10919 10918 10916 10915 10913 10912 10911 10909 10908 10907 10906 10905 10904 10904
10960 10959 10958 10958 10957 10957 10956 10956 10955 10956 10956 10952 10949 10951 10953 10951 10949 10950 10949 10950 10949 10947 10947 10947 10948 10949 10948 10947 10946 10945 10944 10943 10943 10943 10942 10942 10941 10940 10939 10938 10938 10937 10937 10936 10936 10935 10934 10933 10932 10931 10931 10930 10930 10930 10930 10930 10929 10929 10929 10929 10929 10928 10928 10928 10927 10926 10925 10924 10923 10921 10920 10919 10918 10916 10915 10914 10912 10910 10909 10908 10906 10905 10905 10904 10903
10960 10959 10958 10957 10957 10956 10956 10956 10955 10956 10956 10953 10950 10951 10952 10952 10950 10950 10949 10949 10949 10947 10947 10947 10947 10948 10947 10946 10945 10944 10943 10943 10943 10942 10942 10941 10940 10940 10939 10939 10938 10938 10937 10937 10936 10935 10934 10933 10932 10932 10931 10931 10931 10931 10930 10930 10930 10930 10930 10930 10929 10929 10929 10928 10927 10926 10925 10924 10922 10921 10920 10919 10918 10916 10915 10913 10912 10910 10909 10907 10906 10905 10904 10904 10903
10960 10959 10958 10957 10956 10956 10955 10955 10954 10955 10954 10952 10951 10952 10951 10951 10950 10950 10949 10949 10948 10947 10947 10946 10947 10947 10946 10945 10945 10944 10943 10943 10943 10943 10942 10941 10941 10941 10942 10941 10940 10939 10938 10937 10936 10935 10934 10934 10933 10933 10932 10932 10932 10931 10931 10931 10931 10931 10932 10931 10930 10930 10929 10928 10927 10926 10925 10924 10922 10921 10920 10919 10918 10916 10915 10913 10912 10910 10909 10907 10906 10906 10905 10904 10904
10960 10959 10958 10957 10956 10955 10955 10954 10953 10953 10953 10952 10952 10952 10952 10950 10949 10949 10949 10948 10948 10947 10947 10946 10946 10946 10945 10945 10945 10944 10944 10944 10944 10943 10943 10943 10943 10944 10944 10942 10941 10940 10939 10939 10937 10936 10935 10935 10934 10933 10933 10932 10932 10932 10932 10932 10932 10932 10932 10931 10930 10930 10929 10928 10927 10926 10925 10923 10922 10920 10919 10918 10917 10916 10914 10913 10912 10910 10909 10908 10907 10906 10906 10905 10905
10961 10959 10958 10956 10955 10955 10954 10953 10953 10952 10952 10952 10951 10952 10952 10950 10949 10949 10948 10948 10948 10947 10947 10946 10946 10946 10946 10945 10945 10945 10945 10945 10945 10944 10944 10945 10945 10946 10945 10944 10943 10941 10941 10940 10938 10937 10936 10935 10935 10934 10933 10933 10933 10932 10932 10932 10932 10932 10932 10931 10931 10930 10930 10928 10927 10925 10924 10923 10921 10920 10918 10917 10916 10915 10914 10913 10912 10911 10910 10909 10908 10908 10907 10907 10907
10961 10960 10958 10956 10955 10954 10953 10953 10952 10952 10951 10951 10951 10951 10951 10950 10950 10949 10949 10948 10948 10948 10947 10947 10946 10946 10946 10946 10946 10946 10946 10946 10945 10945 10946 10946 10948 10948 10947 10945 10944 10943 10942 10941 10939 10938 10937 10936 10935 10935 10934 10934 10933 10933 10933 10933 10933 10933 10932 10932 10931 10930 10929 10927 10926 10926 10925 10923 10921 10920 10918 10918 10917 10916 10915 10914 10913 10912 10911 10911 10910 10910 10910 10910 10910
10962 10960 10958 10956 10955 10954 10953 10952 10952 10951 10951 10951 10951 10951 10951 10950 10950 10949 10949 10949 10948 10948 10948 10947 10947 10946 10946 10947 10947 10947 10947 10946 10946 10947 10947 10948 10950 10950 10948 10946 10945 10944 10943 10942 10940 10939 10938 10937 10936 10936 10935 10935 10934 10934 10933 10933 10933 10933 10933 10932 10931 10930 10928 10927 10927 10927 10925 10923 10921 10921 10920 10919 10919 10918 10917 10916 10915 10914 10914 10913 10913 10912 10912 10913 10913
10963 10961 10959 10957 10955 10954 10953 10952 10952 10951 10951 10951 10951 10951 10951 10951 10950 10950 10950 10949 10949 10948 10948 10947 10947 10947 10948 10948 10948 10948 10948 10948 10948 10948 10949 10950 10951 10951 10949 10947 10946 10945 10944 10942 10941 10940 10939 10938 10937 10937 10936 10936 10935 10934 10934 10933 10933 10933 10933 10932 10931 10930 10929 10928 10927 10927 10926 10924 10923 10922 10921 10921 10921 10920 10919 10918 10918 10917 10917 10916 10916 10916 10916 10916 10916
10964 10962 10960 10958 10956 10955 10953 10952 10952 10951 10951 10951 10952 10952 10952 10951 10951 10951 10951 10950 10950 10949 10949 10948 10949 10949 10949 10949 10949 10949 10949 10949 10949 10950 10951 10951 10951 10951 10949 10948 10947 10946 10944 10943 10942 10941 10940 10939 10938 10938 10937 10937 10936 10935 10934 10934 10933 10933 10933 10932 10931 10931 10930 10930 10929 10928 10927 10926 10925 10924 10923 10923 10923 10923 10922 10921 10921 10920 10920 10920 10920 10920 10919 10920 10920
10965 10963 10961 10960 10958 10956 10955 10953 10953 10952 10952 10952 10952 10952 10952 10952 10953 10953 10952 10952 10951 10951 10950 10950 10950 10951 10951 10951 10950 10950 10950 10950 10950 10951 10952 10953 10952 10951 10950 10948 10947 10946 10945 10944 10943 10942 10941 10941 10940 10939 10939 10937 10936 10936 10935 10935 10934 10934 10933 10933 10932 10932 10932 10932 10931 10930 10929 10928 10928 10927 10926 10926 10926 10927 10926 10925 10925 10924 10923 10923 10924 10924 10923 10923 10923
10967 10965 10963 10961 10959 10957 10956 10955 10954 10953 10953 10953 10953 10953 10953 10953 10954 10954 10954 10953 10953 10952 10952 10952 10952 10952 10952 10952 10952 10952 10952 10952 10952 10953 10954 10954 10953 10951 10950 10949 10948 10947 10946 10945 10944 10943 10942 10942 10941 10941 10940 10938 10937 10936 10936 10936 10936 10935 10934 10933 10933 10933 10933 10934 10934 10932 10931 10931 10932 10931 10930 10930 10930 10931 10930 10930 10929 10929 10927 10926 10927 10928 10927 10927 10926
10969 10966 10964 10962 10960 10959 10957 10956 10955 10955 10954 10954 10954 10954 10954 10954 10954 10955 10955 10954 10954 10954 10953 10954 10954 10954 10954 10954 10954 10953 10953 10954 10954 10954 10954 10954 10953 10952 10951 10950 10949 10948 10947 10945 10944 10943 10942 10942 10942 10941 10940 10939 10938 10937 10937 10937 10937 10936 10936 10935 10936 10936 10936 10936 10936 10935 10935 10935 10935 10934 10934 10934 10935 10935 10934 10934 10934 10934 10932 10930 10930 10931 10931 10931 10930
10971 10968 10966 10964 10962 10960 10959 10957 10957 10956 10956 10955 10955 10955 10955 10955 10956 10956 10956 10955 10955 10955 10955 10955 10956 10956 10955 10955 10955 10955 10955 10956 10956 10956 10956 10955 10955 10953 10952 10951 10950 10949 10948 10946 10945 10943 10942 10942 10941 10940 10940 10940 10941 10940 10938 10938 10938 10938 10938 10938 10938 10939 10938 10938 10938 10938 10939 10939 10938 10938 10937 10938 10939 10939 10938 10939 10939 10939 10937 10935 10934 10935 10935 10934 10933
10973 10970 10968 10966 10964 10962 10960 10959 10958 10957 10957 10957 10957 10957 10957 10957 10957 10957 10957 10957 10957 10957 10957 10957 10958 10957 10957 10957 10957 10957 10957 10957 10958 10957 10957 10957 10956 10955 10954 10953 10952 10950 10949 10947 10946 10944 10943 10942 10942 10941 10940 10942 10943 10942 10940 10940 10940 10941 10941 10940 10940 10940 10940 10941 10941 10942 10943 10943 10943 10942 10942 10944 10944 10943 10943 10943 10943 10942 10941 10939 10939 10938 10939 10938 10936
10975 10972 10970 10968 10966 10964 10962 10961 10960 10959 10958 10958 10958 10958 10958 10958 10958 10958 10959 10959 10959 10959 10959 10959 10960 10960 10960 10959 10959 10959 10959 10959 10959 10959 10959 10959 10958 10957 10956 10955 10953 10952 10950 10948 10947 10945 10944 10944 10943 10943 10943 10944 10945 10944 10943 10943 10943 10944 10944 10944 10943 10943 10943 10944 10944 10945 10946 10947 10947 10947 10948 10948 10947 10946 10948 10948 10946 10945 10944 10944 10945 10944 10944 10943 10941
10978 10975 10972 10970 10968 10966 10964 10963 10962 10961 10960 10960 10960 10960 10960 10960 10960 10960 10960 10961 10961 10961 10961 10961 10962 10962 10962 10961 10961 10961 10961 10961 10961 10961 10961 10961 10960 10959 10958 10956 10955 10954 10952 10950 10948 10947 10946 10946 10945 10945 10946 10948 10947 10946 10946 10946 10947 10947 10948 10948 10947 10947 10947 10948 10948 10948 10950 10951 10952 10952 10952 10952 10951 10951 10953 10953 10952 10950 10949 10950 10951 10950 10949 10947 10945
10980 10978 10975 10973 10971 10968 10966 10965 10964 10963 10962 10961 10961 10961 10961 10961 10961 10962 10962 10962 10963 10963 10963 10963 10964 10964 10964 10964 10963 10963 10963 10963 10963 10963 10963 10963 10962 10961 10960 10959 10957 10956 10954 10952 10950 10950 10949 10948 10948 10948 10950 10951 10950 10949 10949 10950 10950 10951 10951 10952 10952 10951 10951 10951 10951 10952 10954 10955 10956 10957 10956 10955 10955 10956 10957 10958 10957 10956 10956 10956 10956 10954 10953 10952 10951
10983 10981 10978 10976 10973 10971 10969 10968 10966 10965 10964 10963 10963 10963 10963 10963 10963 10963 10964 10964 10964 10965 10965 10965 10966 10965 10965 10965 10965 10965 10965 10965 10965 10966 10965 10965 10964 10963 10962 10961 10960 10958 10956 10954 10954 10954 10953 10953 10953 10953 10953 10953 10953 10952 10952 10952 10954 10955 10955 10955 10955 10955 10955 10954 10956 10957 10958 10959 10960 10961 10960 10958 10959 10961 10962 10963 10963 10963 10962 10961 10959 10958 10958 10958 10956
10985 10983 10981 10979 10976 10974 10972 10970 10969 10968 10967 10966 10965 10965 10965 10965 10965 10965 10966 10966 10966 10967 10967 10967 10968 10967 10967 10967 10967 10967 10968 10968 10968 10968 10968 10967 10966 10966 10965 10964 10962 10961 10959 10958 10958 10958 10958 10958 10958 10957 10957 10957 10957 10957 10956 10956 10959 10960 10959 10958 10959 10959 10958 10958 10959 10962 10963 10964 10965 10965 10965 10964 10963 10967 10969 10969 10969 10968 10966 10965 10964 10963 10964 10963 10962
10987 10986 10984 10981 10979 10977 10975 10973 10972 10971 10970 10969 10968 10967 10967 10967 10968 10968 10968 10968 10968 10969 10969 10969 10970 10970 10970 10970 10970 10970 10970 10970 10970 10970 10971 10970 10969 10968 10967 10966 10965 10964 10963 10962 10962 10963 10963 10963 10963 10961 10961 10961 10963 10963 10961 10962 10963 10963 10962 10963 10964 10963 10962 10962 10963 10965 10966 10968 10971 10971 10971 10969 10968 10972 10975 10974 10973 10972 10971 10970 10969 10969 10969 10968 10967
10989 10988 10986 10984 10982 10980 10978 10976 10975 10974 10973 10972 10971 10971 10970 10970 10971 10971 10971 10971 10971 10971 10971 10972 10972 10972 10973 10973 10972 10973 10973 10973 10972 10973 10973 10973 10972 10971 10970 10969 10969 10968 10968 10967 10967 10968 10968 10969 10968 10966 10966 10966 10968 10969 10967 10968 10968 10968 10967 10967 10968 10968 10967 10968 10969 10970 10969 10971 10975 10976 10975 10974 10972 10975 10978 10979 10977 10976 10975 10975 10975 10975 10975 10973 10971
10991 10990 10989 10987 10985 10983 10981 10979 10978 10977 10976 10975 10974 10974 10973 10973 10973 10973 10973 10973 10973 10973 10974 10974 10974 10975 10976 10976 10975 10975 10975 10975 10975 10976 10976 10976 10975 10974 10974 10973 10973 10972 10972 10972 10972 10973 10973 10974 10973 10972 10971 10971 10972 10974 10972 10973 10975 10974 10973 10973 10973 10973 10973 10974 10976 10976 10975 10976 10978 10979 10979 10979 10976 10976 10981 10984 10980 10978 10978 10979 10981 10982 10980 10977 10975
10993 10992 10991 10989 10988 10986 10985 10983 10981 10980 10978 10977 10977 10976 10976 10976 10976 10976 10976 10976 10976 10976 10976 10977 10977 10977 10978 10979 10978 10978 10978 10978 10979 10979 10979 10978 10978 10978 10978 10978 10977 10977 10977 10976 10977 10978 10979 10980 10978 10976 10976 10976 10977 10978 10977 10979 10981 10980 10979 10979 10979 10979 10979 10980 10981 10981 10981 10981 10981 10983 10982 10982 10981 10980 10985 10988 10983 10982 10984 10985 10986 10985 10983 10981 10980
10994 10994 10993 10992 10990 10989 10988 10986 10984 10983 10981 10980 10979 10979 10979 10979 10979 10978 10978 10978 10978 10979 10979 10979 10979 10979 10980 10981 10980 10981 10981 10981 10982 10982 10982 10982 10982 10982 10982 10982 10982 10981 10982 10982 10982 10982 10984 10984 10983 10981 10981 10982 10982 10982 10982 10984 10985 10985 10986 10985 10984 10984 10984 10985 10985 10985 10986 10986 10986 10986 10985 10985 10985 10986 10989 10990 10988 10987 10988 10988 10988 10987 10986 10984 10983
10996 10996 10995 10994 10993 10992 10990 10989 10987 10985 10984 10983 10982 10981 10981 10981 10981 10981 10981 10980 10980 10981 10981 10981 10981 10982 10982 10983 10983 10984 10984 10985 10985 10985 10985 10985 10986 10987 10987 10987 10987 10986 10986 10987 10987 10987 10988 10988 10988 10987 10987 10987 10988 10987 10987 10988 10989 10990 10991 10990 10989 10989 10989 10989 10990 10990 10991 10991 10991 10990 10989 10988 10989 10990 10991 10992 10991 10991 10990 10990 10990 10989 10988 10988 10988
10998 10998 10997 10996 10995 10994 10993 10992 10990 10988 10987 10986 10985 10984 10983 10983 10983 10983 10983 10983 10983 10983 10984 10984 10984 10985 10985 10986 10986 10987 10987 10988 10988 10989 10989 10989 10989 10990 10991 10991 10991 10991 10991 10991 10991 10991 10991 10992 10992 10992 10992 10992 10992 10992 10992 10993 10993 10994 10994 10994 10994 10994 10994 10994 10994 10995 10996 10996 10995 10994 10993 10993 10993 10994 10994 10993 10994 10993 10992 10991 10991 10991 10991 10992 10992
10999 10999 10999 10998 10997 10995 10995 10994 10993 10992 10990 10989 10987 10987 10986 10986 10986 10986 10986 10986 10986 10986 10986 10987 10987 10987 10988 10988 10989 10989 10990 10991 10992 10992 10992 10993 10993 10994 10995 10995 10995 10995 10995 10995 10995 10994 10994 10997 10997 10997 10997 10997 10997 10997 10997 10998 10998 10998 10998 10998 10998 10998 10998 10999 10999 10999 10999 10999 10999 10998 10998 10997 10997 10997 10997 10996 10996 10996 10995 10994 10993 10993 10993 10994 10994